Regional Weather Roundup
Issued by NWS Green Bay, WI

Home | Current Version | Previous Version | Graphics & Text | Print | Product List | Glossary On
Versions: 1 2 3 4 5 6 7 8 9 10 11 12 13 14 15 16 17 18 19 20 21 22 23 24 25 26 27 28 29 30 31 32 33 34 35 36 37 38 39 40 41 42 43 44 45 46 47 48 49 50
000
ASUS43 KGRB 221310
RWRGRB

NORTH-CENTRAL AND NORTHEAST WISCONSIN REGIONAL WEATHER ROUNDUP
NATIONAL WEATHER SERVICE GREEN BAY WI
700 AM CST SUN JAN 22 2017

WIZ005-009-010>012-018-019-221400-
NORTH CENTRAL WISCONSIN

CITY           SKY/WX    TMP DP  RH WIND       PRES   REMARKS
IRONWOOD       FOG       33  33 100 W5        29.58R VSB 1/4
MANITOWISH WTR FOG       33  33 100 CALM      29.56R VSB 3/4
ARBOR VITAE    FOG       37  36  98 CALM      29.56R VSB 1/2
EAGLE RIVER    CLOUDY    33  33 100 CALM      29.55R FOG
LAND O LAKES   FOG       35  35 100 CALM      29.56R VSB 1/2
RHINELANDER    FOG       34  34 100 W3        29.55R VSB 3/4
PHILLIPS       CLOUDY    33  33 100 CALM      29.56R FOG
ANTIGO         FOG       32  32 100 CALM      29.56R VSB 1/4
TOMAHAWK       CLOUDY    33  32  97 CALM      29.57R FOG
MERRILL        CLOUDY    33  33 100 CALM        N/A  FOG
$$

WIZ013-073-221400-
NORTHEAST WISCONSIN

CITY           SKY/WX    TMP DP  RH WIND       PRES   REMARKS
IRON MOUNTAIN  CLOUDY    33  31  92 CALM      29.55R FOG
MARINETTE      NOT AVBL
OCONTO         CLOUDY    33  33 100 CALM      29.59R VSB 1/4
$$

WIZ017-030-035>037-045-221400-
CENTRAL WISCONSIN

CITY           SKY/WX    TMP DP  RH WIND       PRES   REMARKS
MEDFORD        FOG       33  33  99 W3        29.56S VSB 1/2
WAUSAU         CLOUDY    35  35 100 CALM      29.56R FOG
MOSINEE        FOG       34  34 100 CALM      29.58R VSB 1/2
MARSHFIELD     FOG       34  34 100 W3        29.57R VSB 1/2
WISC RAPIDS    FOG       36  36 100 NW5       29.60R VSB 1/2
STEVENS POINT  FOG       34  34 100 CALM      29.59R VSB 3/4
WAUPACA        FOG       38  37  97 CALM      29.59R VSB 1/2
SHAWANO        FOG       36  35  96 CALM      29.59R VSB 1/2
CLINTONVILLE   FOG       34  34 100 CALM      29.59R VSB 1/4
WAUTOMA        CLOUDY    33  33 100 CALM      29.60R FOG
$$

WIZ038-039-048-051-221400-
FOX VALLEY

CITY           SKY/WX    TMP DP  RH WIND       PRES   REMARKS
NWS GREEN BAY  FOG       37  37 100 S3        29.59R VSB 1/4
APPLETON       FOG       36  36 100 VRB5      29.57R VSB 1/4
OSHKOSH        FOG       36  35  96 CALM      29.59R VSB 1/4
FOND DU LAC    FOG       37  35  92 CALM      29.60R VSB 1/2
$$

WIZ022-050-052-221400-
EAST CENTRAL WISCONSIN

CITY           SKY/WX    TMP DP  RH WIND       PRES   REMARKS
EPHRAIM        FOG       36  36 100 CALM      29.58R VSB 1/4
WASHINGTON ISL CLOUDY    33  33 100 CALM      29.58R FOG
STURGEON BAY   FOG       37  37 100 S5        29.60R VSB 1/4
MANITOWOC      FOG       38  37  97 W5        29.60S VSB 1/4
SHEBOYGAN      FOG       36  35  96 CALM      29.61R VSB 1/2
$$

LMZ563-521-522-541>543-221400-
LAKESHORE

STATION/POSITION TIME  TEMP    WIND        PRES    VSBY  WAVE
                       AIR SEA DIR/SP/G                  HT/PER
                 (UTC) (F)     (DEG/KT/KT) (MB)    (MI)  (FT/S)
SHEBOYGAN LKSHOR 1200   40     340/  2/  2 1002.2R
KEWAUNEE LKSHORE 1248   38      CALM  /  1 1001.9R
NORTHPORT PIER   1240   35        CALM     1002.0R
SISTER BAY LKSHO 1220   36        CALM       N/A
MENOMINEE LKSHOR 1248          330/  3/  3 1001.6R
$$




USA.gov is the U.S. government's official web portal to all federal, state and local government web resources and services.